Wetbulb
51.36 52.66 51.76 50.84 51.46 51.99 51.03 50.72 50.95 51.72 53.14 52.43 52.78 53.97 53.57 54.06 55.01 54.98 53.79 54.09 53.63 53.83 54.67 54.82 54.33 54.86 54.09 54.27 54.17 53.32 51.87 51.34 46.94 48.90 49.67 51.12 51.58 50.61 50.53 50.75 51.79 51.61 52.40
52.23 52.14 51.58 51.72 51.63 51.04 50.70 50.49 51.42 51.36 53.15 53.27 53.20 53.31 53.51 53.46 53.90 53.82 52.56 52.95 52.75 52.90 53.11 53.66 53.16 55.02 53.80 53.90 53.52 52.85 52.39 50.57 48.06 47.03 49.89 49.35 49.67 50.76 49.45 49.86 52.33 53.36 52.56
51.09 51.44 50.39 50.86 50.02 50.68 51.06 51.45 52.16 51.81 52.26 52.74 53.09 52.89 52.40 52.82 52.19 52.61 53.47 53.35 53.23 53.39 52.85 53.41 53.78 54.02 52.64 53.22 53.11 52.47 51.73 51.03 50.65 48.46 48.88 50.75 50.75 50.45 48.63 50.73 52.24 52.36 53.23
51.05 51.37 50.91 51.14 51.63 51.10 50.29 50.64 51.73 52.37 51.83 52.34 53.20 52.81 52.59 51.40 51.09 51.57 52.87 53.01 53.24 53.23 54.25 54.45 53.22 52.06 51.42 51.36 52.23 51.71 51.65 51.06 50.75 50.02 50.05 50.48 51.18 50.63 49.51 48.62 49.68 51.53 50.63
51.36 51.00 51.37 52.39 52.61 51.58 51.98 52.23 52.00 51.73 52.08 52.17 51.96 52.00 52.85 50.59 48.86 49.37 52.41 51.69 52.50 53.27 53.86 53.83 52.73 52.12 51.68 51.31 51.53 51.92 51.89 51.24 50.16 50.75 50.20 49.82 48.99 48.76 48.74 50.12 49.30 50.25 51.75
51.97 50.97 50.48 51.78 52.62 51.88 52.53 51.98 51.55 50.95 50.82 51.75 51.95 52.06 51.70 49.50 47.46 48.80 50.47 51.89 52.23 51.42 52.04 52.85 53.73 53.18 52.50 50.68 50.52 50.86 49.92 49.45 49.67 50.75 50.21 48.92 48.90 49.60 50.52 50.65 50.74 48.35 46.99
51.44 51.65 51.81 52.39 51.23 52.42 52.82 52.45 52.00 52.04 51.50 50.66 51.00 51.32 51.36 50.04 46.69 47.26 49.51 51.72 51.35 52.12 52.27 52.06 52.20 52.69 53.72 53.85 53.71 51.83 51.47 51.33 50.85 50.80 51.09 50.70 50.36 52.07 51.73 50.64 50.87 50.65 49.34
51.17 51.92 52.57 52.28 51.49 53.11 53.50 53.36 53.55 53.76 52.48 51.37 51.40 51.82 52.39 48.96 46.17 45.90 47.53 52.37 51.85 52.81 52.56 53.46 54.21 53.60 48.78 49.11 49.99 53.04 53.71 53.95 53.21 53.53 53.00 52.81 51.41 51.51 50.62 50.27 50.07 51.06 52.58
51.28 52.29 52.74 53.54 52.56 53.01 52.89 53.43 54.75 54.96 54.32 54.61 54.31 53.78 52.21 50.87 45.32 45.35 49.29 53.97 54.49 53.91 53.45 52.78 52.48 52.58 45.60 44.97 53.53 53.25 53.49 53.87 51.20 50.22 49.31 48.07 46.96 46.67 47.32 48.50 51.28 50.08 48.86
51.98 52.81 53.72 54.10 53.98 54.11 54.81 55.19 55.61 55.57 51.83 54.86 55.08 55.56 51.35 52.41 44.26 44.48 46.69 53.54 53.92 54.35 53.77 51.77 47.26 47.84 45.88 44.87 49.25 52.71 52.54 52.07 50.78 54.60 55.14 53.26 49.30 51.54 48.84 50.09 52.19 50.55 49.69
53.86 54.15 54.63 54.57 52.48 54.90 56.21 56.22 55.99 55.88 53.71 55.59 53.91 55.74 55.75 53.37 51.32 45.18 44.60 50.33 52.42 53.48 52.70 53.30 52.73 45.52 46.33 45.18 44.18 47.99 52.07 47.83 49.08 52.08 52.40 53.70 54.47 55.28 55.32 52.30 53.76 54.18 50.91
54.46 54.80 54.99 56.13 55.84 56.82 56.56 56.29 53.46 54.51 52.60 54.73 55.11 55.36 55.53 54.52 46.90 47.11 46.89 48.04 48.21 52.66 53.80 54.69 54.69 47.10 45.30 44.26 44.80 48.67 43.39 44.89 50.70 52.93 53.40 51.04 51.42 54.42 55.71 56.45 55.98 56.92 57.15
54.61 54.74 55.61 56.04 56.61 56.24 54.80 52.98 51.22 51.47 51.94 51.94 51.16 53.98 51.16 49.69 48.17 46.80 47.59 45.27 48.57 52.57 55.04 51.65 47.45 44.73 43.48 45.65 45.34 43.91 44.19 53.97 53.03 51.64 52.06 52.58 54.08 54.99 55.56 54.36 53.98 55.39 54.61
54.95 54.51 55.17 56.85 55.98 56.27 53.84 51.65 49.73 49.10 49.83 49.86 51.10 49.16 50.74 50.50 47.18 46.70 47.18 49.08 49.22 51.59 49.83 49.73 51.41 51.04 46.42 48.24 51.86 52.88 53.46 52.74 51.54 51.54 52.17 52.41 53.06 52.41 51.74 52.81 52.40 51.21 49.00
54.92 54.76 55.96 54.73 55.64 53.95 50.95 48.17 49.34 45.56 43.49 46.89 46.22 47.91 45.56 45.14 44.67 39.90 40.25 44.11 45.40 45.23 42.15 53.71 53.87 53.51 52.56 52.37 52.64 52.89 51.80 50.94 50.16 51.64 51.77 50.88 50.70 50.85 49.65 51.45 50.38 48.89 46.54
54.53 54.45 54.80 53.47 55.58 55.53 52.04 49.09 40.15 40.75 40.63 39.51 38.02 41.66 47.02 40.26 39.05 39.50 39.63 39.61 39.99 39.63 47.94 52.07 51.89 51.66 51.05 50.98 50.97 50.55 50.96 49.68 50.68 50.88 50.76 50.42 49.37 49.51 49.03 49.34 48.82 47.01 44.77
53.78 54.72 55.71 54.49 53.93 54.45 53.53 53.54 49.14 44.75 41.71 40.46 38.54 37.95 38.16 39.00 39.11 39.45 41.07 40.09 41.82 42.73 51.63 51.55 50.93 50.91 50.92 50.93 50.79 49.96 49.73 50.56 51.14 50.52 50.19 49.81 48.75 48.60 48.34 46.97 47.09 46.25 44.71
55.78 50.61 52.45 54.98 55.74 54.45 56.21 55.66 54.24 51.76 48.83 48.44 41.29 39.77 39.33 39.66 39.60 38.97 39.05 45.06 50.37 49.03 49.58 48.98 49.48 50.21 50.36 50.73 50.48 50.01 50.19 49.80 49.31 49.49 49.25 49.53 47.83 47.99 47.12 46.07 45.94 45.22 44.21
55.66 55.20 55.88 55.57 56.24 54.29 55.42 55.19 53.43 53.84 53.25 50.37 48.87 44.57 43.93 39.56 41.06 41.66 41.05 49.77 48.69 48.10 48.19 48.52 49.01 49.58 50.19 49.95 50.36 50.57 52.12 48.96 48.04 48.72 48.67 48.92 47.59 47.06 46.14 46.08 45.26 41.41 41.82
53.97 50.59 49.29 55.30 54.62 54.97 53.95 53.15 52.86 54.19 54.27 50.74 47.91 48.56 50.73 49.65 50.52 49.11 49.25 48.81 47.74 46.97 47.55 47.58 49.24 49.41 48.83 48.92 49.61 49.55 48.08 47.00 47.41 47.08 47.55 48.19 47.45 46.58 45.86 45.35 45.11 44.04 43.52
56.49 56.28 51.40 54.45 53.90 53.03 53.04 53.72 53.61 53.16 51.99 51.66 50.11 47.81 35.51 47.03 50.52 48.64 47.84 47.78 47.30 47.29 48.09 47.95 47.80 47.80 47.72 47.91 47.76 46.73 45.20 44.50 45.11 45.07 46.30 47.12 47.52 45.20 46.17 45.45 45.29 44.57 43.83
56.42 55.17 54.75 53.24 54.49 53.49 53.53 53.57 52.54 51.35 51.18 50.37 50.83 48.73 34.96 48.18 50.76 49.15 48.69 48.73 47.93 48.76 48.28 48.11 47.19 46.91 46.88 46.54 46.04 44.46 42.98 41.73 42.70 44.14 45.59 45.40 46.41 44.80 45.59 44.85 44.48 44.21 43.83
54.82 55.22 54.79 54.12 53.83 48.91 52.96 53.17 51.93 51.22 50.18 51.14 50.06 49.48 50.50 51.32 51.43 50.08 48.94 49.23 49.47 48.76 48.63 48.26 47.30 46.42 46.21 45.96 45.27 43.65 41.06 39.84 40.42 43.76 42.87 44.26 46.00 43.73 44.70 44.36 43.92 43.64 42.83
54.73 54.52 55.16 54.89 53.70 52.84 53.05 52.55 52.73 45.33 48.94 48.81 50.65 50.71 51.03 52.38 52.39 52.15 49.77 49.94 49.25 49.26 48.80 47.83 47.57 46.79 45.32 43.58 43.37 42.55 40.37 37.23 38.32 41.98 41.32 43.96 45.17 43.25 43.69 44.16 43.60 43.81 42.76
53.60 54.74 55.01 55.02 55.72 54.93 53.38 53.11 52.17 52.39 51.08 50.61 50.30 50.37 50.61 52.22 52.16 51.80 50.50 49.86 49.58 48.63 48.94 48.23 47.69 46.04 44.87 42.92 40.98 39.90 34.37 31.64 35.50 32.41 40.65 42.73 45.45 44.75 43.24 43.42 43.46 43.37 43.05
54.85 54.54 55.26 55.39 55.41 55.55 55.10 53.72 53.33 52.49 51.67 51.06 50.99 51.21 50.72 50.42 51.66 51.98 50.27 48.65 48.27 48.57 48.41 47.88 47.58 44.84 43.78 41.57 38.97 33.48 31.92 31.77 33.82 32.31 36.42 44.63 43.92 43.45 43.15 42.89 43.16 42.64 42.25
MSLP
1024.61 1024.62 1024.55 1024.41 1023.96 1023.71 1023.52 1023.24 1022.99 1022.49 1022.10 1021.79 1021.53 1021.21 1021.05 1020.85 1020.69 1020.67 1020.55 1020.27 1020.17 1020.12 1020.02 1019.93 1019.91 1019.78 1019.82 1019.95 1020.09 1020.19 1020.41 1020.55 1020.63 1020.58 1020.68 1020.61 1020.38 1020.24 1020.09 1019.82 1019.57 1019.25 1019.04
1024.92 1024.68 1024.56 1024.44 1024.17 1023.95 1023.68 1023.48 1023.05 1022.56 1022.08 1021.82 1021.66 1021.28 1021.09 1021.10 1020.96 1020.76 1020.66 1020.56 1020.40 1020.23 1020.08 1020.18 1020.24 1020.10 1020.23 1020.37 1020.39 1020.55 1020.64 1020.83 1020.87 1020.79 1020.60 1020.53 1020.24 1019.99 1020.02 1019.74 1019.15 1018.53 1018.29
1025.22 1024.92 1024.90 1024.81 1024.54 1024.21 1023.80 1023.44 1022.99 1022.65 1022.33 1021.89 1021.68 1021.58 1021.44 1021.35 1021.35 1021.31 1020.98 1020.78 1020.69 1020.57 1020.50 1020.52 1020.55 1020.58 1020.64 1020.62 1020.75 1020.73 1020.72 1020.71 1020.91 1020.94 1020.62 1020.35 1019.95 1019.78 1019.75 1019.11 1018.76 1018.44 1018.13
1025.43 1025.11 1025.22 1024.95 1024.77 1024.46 1024.07 1023.68 1023.27 1022.86 1022.60 1022.27 1021.89 1021.73 1021.65 1021.77 1021.96 1021.91 1021.57 1021.26 1021.02 1020.96 1020.90 1020.93 1021.09 1021.19 1021.16 1021.04 1020.81 1020.92 1020.88 1020.82 1020.74 1020.52 1020.27 1020.00 1019.67 1019.41 1019.50 1019.10 1018.56 1018.14 1017.76
1025.70 1025.54 1025.48 1025.14 1024.89 1024.63 1024.34 1023.98 1023.76 1023.39 1023.07 1022.73 1022.50 1022.28 1021.99 1022.29 1022.85 1022.70 1022.17 1021.76 1021.59 1021.35 1021.23 1021.26 1021.50 1021.52 1021.44 1021.36 1021.09 1021.01 1020.80 1020.71 1020.53 1020.31 1019.97 1019.62 1019.25 1019.13 1019.10 1018.70 1018.42 1017.99 1017.37
1025.78 1026.03 1025.75 1025.35 1024.98 1024.76 1024.44 1024.17 1023.97 1023.79 1023.65 1023.30 1023.01 1022.82 1022.75 1023.09 1023.45 1023.07 1022.65 1022.20 1022.01 1021.80 1021.69 1021.63 1021.45 1021.42 1021.38 1021.42 1021.23 1021.03 1020.79 1020.64 1020.46 1020.20 1019.78 1019.56 1019.33 1019.14 1018.87 1018.73 1018.49 1018.28 1017.82
1026.13 1025.86 1025.62 1025.29 1025.03 1024.83 1024.46 1024.31 1024.08 1023.99 1023.95 1023.83 1023.59 1023.38 1023.32 1023.50 1023.62 1023.35 1022.79 1022.46 1022.39 1022.26 1022.02 1021.86 1021.50 1021.51 1021.30 1021.28 1020.88 1020.63 1020.48 1020.32 1020.24 1020.16 1019.90 1019.36 1019.12 1018.96 1018.79 1018.70 1018.39 1018.13 1017.84
1026.33 1025.90 1025.66 1025.30 1025.12 1024.73 1024.42 1024.25 1024.13 1024.08 1024.10 1023.88 1023.63 1023.40 1023.41 1023.71 1023.76 1023.58 1023.27 1022.83 1022.58 1022.33 1022.13 1021.89 1021.62 1021.61 1021.84 1021.58 1021.13 1020.48 1019.92 1019.78 1019.65 1019.68 1019.61 1019.23 1019.04 1018.90 1018.78 1018.61 1018.32 1017.91 1017.24
1026.35 1025.95 1025.80 1025.44 1025.13 1024.77 1024.56 1024.42 1024.17 1024.02 1023.93 1023.55 1023.44 1023.27 1023.37 1023.71 1023.79 1023.64 1023.28 1022.75 1022.29 1022.04 1021.89 1021.89 1021.85 1021.87 1021.94 1021.65 1021.27 1020.67 1020.17 1019.79 1019.53 1019.42 1019.23 1019.09 1018.86 1018.50 1018.60 1018.80 1018.05 1017.48 1017.09
1026.45 1026.15 1025.95 1025.69 1025.42 1025.10 1024.75 1024.52 1024.32 1024.05 1023.87 1023.75 1023.43 1023.27 1023.38 1023.58 1023.83 1023.63 1023.37 1022.97 1022.35 1021.95 1021.85 1022.00 1021.93 1021.88 1021.54 1021.53 1021.42 1020.85 1020.36 1019.95 1019.41 1019.30 1018.83 1018.43 1018.29 1017.96 1018.20 1018.39 1017.82 1017.58 1017.08
1026.38 1026.10 1025.93 1025.82 1025.57 1025.26 1024.91 1024.52 1024.36 1024.20 1023.90 1023.75 1023.52 1023.40 1023.47 1023.62 1023.81 1023.55 1023.52 1023.31 1022.66 1021.96 1021.63 1021.69 1021.79 1021.45 1021.27 1021.28 1021.18 1020.83 1020.50 1020.17 1019.29 1019.52 1018.61 1018.10 1017.43 1017.30 1017.16 1017.36 1017.05 1016.84 1016.40
1026.41 1026.17 1026.08 1025.67 1025.58 1025.24 1024.84 1024.57 1024.41 1024.38 1024.14 1023.97 1023.71 1023.58 1023.63 1023.52 1023.75 1023.32 1023.03 1022.70 1022.65 1022.47 1021.66 1021.56 1021.48 1021.32 1021.23 1021.03 1020.80 1020.47 1020.05 1019.80 1019.34 1018.93 1018.44 1017.83 1017.22 1016.62 1016.22 1016.07 1015.92 1015.59 1015.17
1026.63 1026.31 1025.95 1025.70 1025.45 1025.10 1024.87 1024.87 1024.70 1024.56 1024.57 1024.33 1024.11 1023.91 1023.85 1023.92 1023.83 1023.63 1023.02 1022.75 1022.38 1022.34 1022.06 1021.91 1021.33 1021.28 1020.88 1020.60 1020.29 1019.90 1019.72 1019.22 1018.78 1018.48 1018.14 1017.77 1017.04 1016.49 1015.99 1015.77 1015.38 1015.03 1014.78
1026.72 1026.50 1026.16 1025.64 1025.41 1025.16 1025.10 1025.44 1025.53 1025.51 1025.30 1025.06 1024.63 1024.50 1024.29 1024.29 1024.61 1024.39 1023.86 1023.08 1022.45 1022.42 1021.94 1021.45 1021.15 1020.77 1020.51 1020.35 1019.91 1019.68 1019.62 1019.38 1019.12 1018.74 1018.22 1017.65 1017.18 1016.78 1016.52 1016.04 1015.80 1015.57 1015.48
1026.90 1026.44 1026.07 1025.68 1025.34 1025.59 1026.07 1026.68 1026.62 1026.73 1026.55 1026.18 1025.78 1025.42 1025.19 1025.09 1025.28 1025.32 1025.06 1024.21 1023.65 1023.08 1022.36 1021.24 1020.86 1020.65 1020.56 1020.39 1020.20 1020.04 1019.98 1019.76 1019.45 1018.83 1018.50 1018.21 1017.78 1017.30 1016.95 1016.38 1016.23 1016.14 1016.11
1026.97 1026.45 1025.97 1025.77 1025.13 1025.03 1025.71 1026.57 1026.97 1027.06 1026.91 1026.73 1026.33 1025.70 1025.36 1025.26 1025.21 1024.94 1024.43 1023.99 1023.39 1022.98 1022.62 1021.66 1021.35 1021.11 1020.96 1020.83 1020.70 1020.60 1020.28 1020.12 1019.73 1019.24 1018.94 1018.64 1018.40 1017.91 1017.41 1016.95 1016.75 1016.78 1016.70
1026.92 1026.54 1025.80 1025.25 1024.75 1024.39 1024.37 1024.99 1025.95 1026.86 1026.81 1026.60 1026.47 1025.89 1025.40 1025.19 1025.00 1024.70 1024.33 1023.93 1022.97 1022.94 1022.48 1022.00 1021.70 1021.47 1021.31 1021.21 1021.08 1021.02 1020.74 1020.41 1020.13 1019.72 1019.35 1019.07 1018.74 1018.25 1017.87 1017.61 1017.36 1017.25 1017.05
1026.59 1026.11 1025.64 1025.06 1024.31 1023.99 1023.59 1023.73 1024.09 1024.98 1025.70 1026.00 1026.03 1026.03 1025.42 1024.96 1024.74 1024.51 1024.08 1023.27 1023.08 1022.72 1022.52 1022.33 1022.06 1021.77 1021.60 1021.54 1021.46 1021.33 1021.00 1020.80 1020.61 1020.25 1019.81 1019.37 1019.13 1018.68 1018.28 1018.02 1017.78 1017.66 1017.50
1026.03 1025.35 1025.22 1024.69 1024.17 1023.74 1023.45 1023.27 1023.43 1023.95 1024.34 1024.73 1025.12 1025.50 1024.80 1025.07 1024.85 1024.57 1024.41 1023.98 1023.57 1023.33 1022.97 1022.59 1022.33 1022.07 1021.93 1021.90 1021.85 1021.63 1021.36 1021.25 1021.07 1020.71 1020.23 1019.71 1019.46 1019.04 1018.69 1018.37 1018.15 1017.88 1017.80
1025.83 1025.33 1024.95 1024.52 1023.80 1023.28 1023.28 1023.33 1023.39 1023.46 1023.63 1024.08 1024.69 1024.80 1024.38 1024.28 1024.44 1024.50 1024.40 1024.18 1023.85 1023.73 1023.46 1022.99 1022.61 1022.46 1022.34 1022.34 1022.20 1022.00 1021.96 1021.91 1021.71 1021.28 1020.72 1020.13 1019.78 1019.41 1019.08 1018.80 1018.47 1018.31 1018.23
1025.60 1025.05 1024.38 1024.09 1023.49 1023.67 1023.51 1023.39 1023.32 1023.26 1023.37 1023.53 1024.21 1024.49 1024.45 1024.65 1024.14 1024.33 1024.39 1024.24 1024.10 1023.90 1023.81 1023.44 1023.04 1023.03 1022.94 1022.84 1022.77 1022.75 1022.81 1022.85 1022.57 1022.05 1021.39 1020.58 1020.09 1019.86 1019.33 1019.06 1018.77 1018.63 1018.64
1025.27 1024.43 1023.63 1023.45 1023.65 1023.71 1023.75 1023.37 1023.26 1023.25 1023.24 1023.45 1023.77 1024.07 1024.16 1024.29 1024.05 1024.18 1024.32 1024.30 1024.22 1024.07 1023.99 1023.89 1023.62 1023.67 1023.65 1023.61 1023.58 1023.59 1023.77 1023.81 1023.48 1022.83 1022.06 1021.52 1020.67 1020.35 1019.80 1019.46 1019.17 1018.97 1019.02
1024.98 1024.13 1023.24 1023.22 1023.49 1023.61 1023.61 1023.25 1023.28 1023.40 1023.31 1023.27 1023.52 1023.58 1023.75 1023.94 1024.03 1024.25 1024.31 1024.38 1024.30 1024.39 1024.29 1024.28 1024.22 1024.25 1024.56 1024.47 1024.41 1024.32 1024.60 1024.63 1024.33 1023.41 1022.99 1022.15 1021.10 1020.85 1020.32 1019.90 1019.63 1019.38 1019.44
1024.84 1024.20 1023.41 1023.27 1023.10 1023.24 1023.26 1023.30 1023.12 1023.47 1023.35 1023.33 1023.57 1023.65 1023.77 1023.87 1023.97 1024.16 1024.31 1024.31 1024.40 1024.40 1024.52 1024.65 1024.63 1024.71 1025.04 1025.27 1025.16 1025.03 1025.19 1025.26 1024.77 1023.98 1023.56 1022.53 1021.67 1021.24 1020.87 1020.30 1020.05 1019.74 1019.76
1024.85 1024.39 1023.72 1023.29 1023.33 1023.06 1023.21 1022.95 1022.90 1023.12 1023.17 1023.40 1023.55 1023.65 1023.64 1023.75 1023.84 1024.08 1024.28 1024.37 1024.34 1024.50 1024.47 1024.65 1024.87 1025.10 1025.29 1025.70 1025.85 1025.73 1025.66 1025.31 1024.86 1024.57 1023.59 1022.78 1021.85 1021.61 1021.37 1020.84 1020.52 1020.25 1020.16
1024.69 1024.20 1023.61 1023.50 1023.31 1023.05 1022.67 1022.68 1022.71 1022.84 1023.04 1023.26 1023.42 1023.61 1023.73 1023.74 1023.81 1024.02 1024.21 1024.60 1024.52 1024.41 1024.54 1024.67 1024.81 1025.35 1025.61 1025.99 1026.20 1026.08 1025.76 1025.33 1024.80 1024.19 1023.61 1022.52 1022.08 1021.97 1021.81 1021.38 1021.06 1020.69 1020.63
Wind_Speed
9 10 9 10 9 7 8 7 7 6 6 5 5 4 5 5 4 1 2 1 1 3 5 4 2 2 3 4 4 4 2 3 3 3 3 2 3 3 3 5 5 6 4
11 9 8 9 9 9 8 9 7 5 5 4 7 6 5 3 6 6 6 8 7 6 4 7 7 5 6 5 4 5 4 4 2 2 2 2 2 3 3 6 5 6 5
10 11 10 9 8 9 9 7 6 7 6 8 6 5 5 6 8 9 7 5 6 6 5 6 5 6 5 4 4 3 3 2 0 2 2 3 4 1 3 5 5 6 4
9 10 11 8 9 7 5 7 7 7 6 6 4 7 7 9 9 9 9 8 5 5 6 7 8 7 6 6 4 3 2 1 1 2 3 3 3 2 4 4 4 4 5
7 10 9 9 8 7 9 9 10 9 7 8 8 7 6 9 7 8 7 6 8 6 5 6 6 5 5 4 3 2 2 2 3 4 4 3 1 1 3 2 3 3 4
8 7 5 7 7 8 8 7 6 7 9 9 9 8 9 7 9 10 9 6 6 5 7 5 3 4 3 1 3 4 3 4 4 3 4 3 2 1 2 4 3 3 3
8 10 6 6 8 7 5 6 5 6 5 6 6 7 7 6 8 9 12 5 5 5 5 5 4 3 2 6 6 8 7 7 8 4 5 3 3 4 5 5 5 4 3
6 8 10 7 6 5 4 5 6 5 6 4 2 2 4 4 6 6 7 4 5 2 2 3 5 6 5 5 7 7 3 5 6 3 4 4 4 4 3 3 5 6 5
6 9 8 8 7 8 8 9 6 4 4 3 4 6 5 5 4 6 7 3 0 1 5 5 6 5 5 8 7 7 5 5 1 7 8 10 12 9 6 4 5 4 3
7 7 6 6 7 7 6 3 2 5 4 5 4 4 6 3 1 3 3 4 5 1 5 4 2 2 6 6 4 5 4 4 5 6 7 7 10 9 7 7 5 5 4
5 4 4 2 2 4 5 6 6 5 4 3 3 5 5 5 4 4 4 6 5 4 3 3 3 6 8 8 6 5 3 4 9 4 7 6 5 6 6 7 9 6 4
4 6 5 4 4 2 4 2 4 2 4 4 2 4 4 5 10 10 12 10 6 5 3 1 2 6 8 9 6 10 9 5 5 5 6 4 3 4 2 5 8 8 5
5 2 2 2 2 4 6 7 6 6 5 5 3 3 6 5 5 12 14 15 9 4 6 6 11 13 10 7 11 11 7 4 4 3 2 4 4 4 4 3 6 5 5
4 3 3 2 4 6 5 6 6 6 6 7 6 7 6 5 5 6 7 9 10 7 8 9 9 9 13 7 5 3 3 6 6 7 4 5 5 5 5 4 3 4 4
6 5 2 6 1 3 5 4 4 3 4 4 4 4 5 4 4 5 5 6 6 7 10 5 4 4 5 5 5 6 5 6 7 6 5 6 6 6 5 4 4 4 5
5 4 4 4 5 4 5 4 6 4 6 7 5 5 1 2 7 9 10 11 14 12 4 4 4 4 5 5 5 6 5 6 7 6 5 5 7 7 5 5 4 5 5
4 6 6 5 4 5 3 8 6 3 6 7 8 5 1 6 9 9 10 13 13 10 4 4 4 4 4 5 5 6 6 5 6 6 5 5 7 7 6 6 4 4 4
7 11 5 6 6 4 2 3 3 6 6 4 7 8 7 6 10 12 13 9 5 5 4 4 4 4 4 5 5 5 6 5 6 7 6 4 6 6 5 5 5 4 4
8 4 5 6 6 5 4 3 3 3 3 5 4 2 6 9 9 11 12 5 5 5 6 4 4 5 4 5 4 5 5 4 5 6 6 5 5 6 5 5 5 7 6
5 11 8 7 8 4 4 4 4 3 2 5 4 4 5 7 3 5 4 4 4 5 6 6 4 5 5 5 5 5 6 8 8 8 7 6 4 6 5 7 5 6 5
6 8 11 6 4 5 5 3 3 3 3 4 5 2 3 2 3 4 4 4 4 4 4 6 6 7 7 7 7 8 9 8 9 9 9 8 5 7 6 6 5 6 5
9 9 4 3 2 3 3 5 4 5 4 4 4 3 3 3 5 4 4 3 4 4 4 5 6 7 8 8 8 8 8 8 8 9 10 11 6 8 8 6 7 5 6
10 11 4 3 3 1 4 3 3 3 5 3 3 4 3 4 4 4 3 3 3 4 4 4 5 6 7 7 7 7 7 7 7 9 10 11 7 7 8 5 8 5 7
9 8 6 6 3 3 3 5 2 2 2 4 3 2 2 2 3 4 3 3 3 3 3 4 4 7 7 7 7 7 6 6 7 8 11 10 8 8 8 6 8 8 7
5 8 8 5 6 4 2 4 2 2 3 2 2 2 2 2 3 3 3 3 2 3 3 4 3 7 9 10 10 11 9 8 8 7 8 10 9 8 9 7 8 6 8
6 8 6 5 7 4 4 2 3 1 1 2 2 2 2 3 3 3 3 3 3 2 3 3 5 10 9 8 9 8 8 9 10 11 9 6 7 6 5 8 11 6 8
Wind_Direction
44 38 11 1 356 1 360 2 341 334 359 6 347 34 35 4 16 328 222 257 76 19 10 359 317 213 27 19 29 33 16 9 360 16 50 252 248 303 322 289 268 260 248
40 5 16 4 0 6 358 0 350 326 353 13 14 5 12 19 4 5 22 11 10 9 29 34 31 40 48 36 44 49 77 71 5 253 264 298 262 270 274 281 273 269 217
39 17 15 8 3 0 4 4 4 351 15 358 21 17 21 37 24 12 0 18 6 359 23 38 45 40 28 39 48 52 27 77 219 250 295 232 258 227 302 271 240 267 271
17 21 20 14 8 4 360 346 11 359 2 335 356 40 45 50 25 9 7 7 13 41 39 54 45 41 24 2 61 32 356 321 297 296 289 276 244 189 227 267 291 244 257
38 19 12 357 22 19 22 21 23 24 23 22 22 22 20 49 26 3 351 354 19 35 42 73 68 58 53 35 354 18 291 341 336 309 280 230 237 287 257 330 296 322 291
30 48 339 345 23 20 18 32 26 27 29 18 20 27 32 52 3 360 352 37 14 12 39 30 86 56 127 78 264 272 321 344 328 342 331 34 40 308 1 345 324 3 315
6 4 8 354 24 360 25 13 25 35 38 32 21 19 34 39 15 9 358 50 45 31 24 29 353 111 3 342 313 242 252 246 243 277 306 2 352 7 348 334 329 326 291
351 6 354 11 14 13 28 31 21 31 39 36 6 313 81 58 22 359 330 63 71 100 98 308 337 82 37 348 312 300 226 204 236 272 256 323 319 325 293 284 286 278 272
357 8 7 15 35 30 31 32 29 46 42 17 41 61 71 78 33 11 354 317 178 113 83 45 348 52 357 352 347 7 24 14 157 290 265 286 288 260 231 328 302 347 320
355 1 1 19 26 15 20 59 3 346 4 12 66 84 95 96 6 4 334 305 334 168 130 137 69 344 318 343 332 309 331 328 314 330 305 280 259 270 244 218 257 294 307
2 349 11 66 348 331 327 338 350 4 340 336 360 97 68 52 60 1 337 310 353 324 145 145 158 233 265 276 272 284 301 332 299 321 273 266 253 245 252 198 219 222 255
27 12 23 15 31 319 297 347 322 32 352 72 57 70 96 75 29 7 346 342 345 320 44 13 292 253 278 292 297 276 306 280 269 268 277 295 304 296 235 214 229 239 238
5 348 110 335 335 301 57 25 32 18 22 19 41 353 77 48 22 2 348 339 318 330 337 322 301 301 293 285 268 282 300 291 323 337 289 285 305 296 1 327 319 333 331
342 341 295 46 4 9 49 56 26 18 13 16 18 24 25 54 25 351 348 340 350 3 343 309 286 268 288 283 314 25 351 7 2 341 349 343 348 355 355 330 345 359 7
322 278 299 318 76 90 59 23 60 32 13 34 359 50 13 9 353 295 289 323 326 311 319 308 24 13 17 13 12 17 37 10 350 330 7 1 358 347 345 339 16 14 12
343 326 337 311 296 183 154 128 52 24 330 337 324 57 154 157 316 308 312 317 317 332 318 27 19 17 18 19 18 14 19 7 350 0 7 2 357 343 343 350 23 32 3
318 293 298 306 283 296 199 174 169 215 270 287 298 301 283 280 316 318 320 318 304 351 25 14 19 23 14 26 15 23 353 12 357 354 360 5 359 344 358 357 7 27 354
293 286 275 290 304 293 11 43 105 155 181 183 242 244 260 283 312 318 332 336 16 20 22 18 12 11 15 30 14 12 342 20 11 352 352 4 357 340 350 2 5 20 16
301 333 325 313 305 313 327 30 58 77 85 80 55 242 221 244 268 297 311 6 30 24 1 16 11 359 26 25 12 347 352 21 10 348 343 345 4 346 350 357 8 4 33
288 276 265 280 286 21 32 12 10 11 93 110 85 2 340 339 90 40 50 24 26 38 1 346 14 9 29 22 359 1 20 16 4 353 342 344 15 347 354 359 6 7 23
294 283 268 283 41 23 352 353 347 1 18 74 121 134 276 318 35 59 40 35 30 34 15 341 23 25 16 18 9 26 26 12 359 348 341 345 8 358 348 8 356 19 27
288 294 298 30 50 21 333 320 26 1 31 29 129 177 237 268 53 67 54 39 27 30 25 9 19 35 16 21 13 30 22 9 352 342 345 339 3 359 339 16 351 22 28
303 320 321 94 11 267 230 299 79 13 334 71 12 34 45 52 56 43 66 39 56 37 33 29 26 44 29 20 17 36 22 2 338 339 340 327 1 3 344 15 350 20 20
293 309 323 335 119 324 83 310 92 182 308 30 47 24 64 36 73 90 60 63 31 75 37 55 42 55 54 24 20 14 21 354 325 342 331 329 326 17 347 5 354 22 30
299 304 305 323 344 320 174 264 0 1 24 48 14 18 23 17 75 77 91 23 70 53 70 78 55 48 63 49 23 12 352 338 336 324 330 318 356 36 353 358 358 24 27
304 293 274 321 323 308 308 294 314 304 49 343 60 45 4 330 63 75 84 60 350 77 59 77 74 79 48 44 21 1 348 343 342 335 329 303 30 5 2 356 6 8 23